Location: *
(31.7739°N, 35.1806°E)
Time: 20:21:20
(UTC+00:00)

Daily predictions for brighter satellites

Satellite Brightness Start Highest point End
(mag) Time Altitude Azimuth Time Altitude Azimuth Time Altitude Azimuth
Ariane Rocket 4.1 16:19:50 10° ESE 16:23:49 24° ENE 16:27:48 10° NNE
Cosmos 1939 Rocket 2.8 16:20:26 10° SSE 16:24:21 84° E 16:28:15 10° N
STARLINK-52 3.4 16:23:40 10° SSW 16:26:41 40° SE 16:29:43 10° ENE
STARLINK-1144 3.9 16:24:01 10° NNW 16:28:04 52° NE 16:32:06 10° ESE
Meteor 1-24 Rocket 4.4 16:24:40 10° NNW 16:29:53 57° W 16:35:02 10° S
SeaSat 1 3.2 16:25:19 10° NNE 16:30:11 59° WNW 16:34:59 10° SW
Cosmos 1953 2.3 16:28:37 10° S 16:32:30 57° E 16:36:24 10° NNE
Cosmos 1470 3.7 16:28:54 10° SSW 16:32:41 54° W 16:36:31 10° N
HJ-1C 4.0 16:29:46 10° SE 16:32:51 36° ENE 16:35:58 10° N
STARLINK-1103 3.8 16:28:57 10° NW 16:33:02 58° NE 16:37:06 10° SE
Meteor 2-10 4.4 16:28:38 10° SSE 16:33:46 48° E 16:39:06 10° NNE
Cosmos 1626 Rocket 3.5 16:30:39 10° N 16:34:59 73° E 16:39:17 10° SSE
STARLINK-1101 3.7 16:33:55 10° NW 16:38:02 66° NE 16:42:08 10° SE
Cosmos 1726 2.4 16:34:58 10° SSE 16:38:31 44° E 16:42:05 10° NNE
Cosmos 614 Rocket 4.4 16:34:12 10° S 16:39:01 39° E 16:43:51 10° NNE
ARGOS 4.1 16:37:04 10° SE 16:41:29 27° ENE 16:45:56 10° NNE
STARLINK-1102 3.6 16:38:53 10° NW 16:43:01 74° NE 16:47:03 11° SE
CZ-2C R/B 4.1 16:40:31 10° ENE 16:43:19 14° E 16:46:03 10° SE
Aureole 2 Rocket 2.3 16:42:27 10° N 16:45:50 63° ENE 16:49:04 10° SSE
Cosmos 1602 Rocket 3.5 16:42:07 10° N 16:46:31 76° E 16:50:52 10° S
STARLINK-1111 3.6 16:43:50 10° NW 16:47:58 83° NE 16:51:48 12° SE
Cosmos 1726 Rocket 4.4 16:44:14 10° SSE 16:48:03 30° E 16:51:53 10° NNE
SJ-11-01 4.5 16:45:11 10° SSE 16:49:44 52° ENE 16:54:18 10° N
STARLINK-1073 3.6 16:48:49 10° NW 16:52:57 87° SW 16:56:36 13° SE
BREEZE-M DEB (TANK) 2.4 16:46:35 10° NW 16:54:02 80° NE 16:55:57 18° SE
FREGAT/IRIS 3.6 16:54:24 21° ESE 16:55:09 24° ENE 16:57:25 10° NNE
Cosmos 2084 Rocket 3.9 16:52:37 10° NW 16:57:03 64° WSW 17:01:28 10° SSE
Aureole 3 4.4 16:53:38 10° SSW 16:57:53 61° W 17:03:22 10° N
STARLINK-1121 3.7 16:53:48 10° NW 16:57:55 78° SW 17:01:23 14° SE
GEOS 3 Rocket 3.9 16:53:40 13° SE 16:57:57 48° NE 17:02:56 10° NNW
SL-24 R/B - RUBIN 2 4.0 16:53:42 10° SSW 16:58:52 73° ESE 17:04:48 10° NNE
ARGOS Delta rocket 4.0 16:54:30 10° SSE 16:59:41 75° ENE 17:05:06 10° N
Cosmos 407 Rocket 3.6 16:54:57 10° S 16:59:57 52° ESE 17:04:56 10° NNE
STARLINK-1106 3.8 16:58:47 10° NW 17:02:54 69° SW 17:06:10 15° SSE
Cosmos 1825 Rocket 4.0 16:58:50 10° NNE 17:02:55 38° E 17:05:59 16° SE
USA 186 2.4 17:00:58 19° SE 17:02:57 37° ENE 17:06:01 10° N
Aureole 1 Rocket 4.3 16:57:30 10° S 17:05:35 71° ESE 17:12:10 10° NNE
Cosmos 2228 2.9 17:02:46 10° S 17:06:59 63° E 17:11:15 10° NNE
STARLINK-1112 4.0 17:03:47 10° NW 17:07:52 61° SW 17:10:58 17° SSE
Cosmos 1992 Rocket 4.0 17:04:00 10° NNW 17:09:13 90° SSE 17:14:25 10° SSE
IRIDIUM 106 4.2 17:07:29 10° N 17:12:43 78° E 17:17:55 10° S
STARLINK-1128 4.2 17:08:49 10° NW 17:12:51 53° SW 17:15:46 17° SSE
ATLAS 5 CENTAUR R/B 1.4 17:10:07 10° SSW 17:14:06 82° WNW 17:18:25 10° NNE
Cosmos 1758 Rocket 3.4 17:12:21 10° N 17:16:40 72° E 17:20:31 13° SSE
SJ-6B 3.2 17:15:00 26° SE 17:16:54 45° ENE 17:20:51 10° N
Meteor 1-16 Rocket 4.3 17:11:51 10° SSW 17:17:11 75° W 17:22:41 10° N
Cosmos 1606 Rocket 3.5 17:13:16 10° S 17:17:40 87° W 17:22:08 10° N
STARLINK-1113 4.4 17:13:51 10° NW 17:17:49 47° SW 17:20:33 18° SSE
Cosmos 2074 Rocket 3.9 17:12:36 10° N 17:18:54 73° E 17:25:10 10° SSE
BREEZE M DEB (TANK) 2.1 17:17:14 10° WSW 17:19:34 67° NW 17:24:11 10° NE
SEDSat Delta rocket 3.3 17:14:48 10° W 17:19:59 65° SSW 17:22:04 32° ESE
Centaur AC-119 4.4 17:13:47 10° SW 17:22:39 24° S 17:24:23 20° SSE
Cosmos 1954 Rocket 4.4 17:19:14 10° S 17:24:06 40° ESE 17:28:57 10° NNE
Cosmos 1953 Rocket 3.9 17:20:18 10° N 17:24:37 46° E 17:25:59 35° SE
Cosmos 1023 Rocket 4.3 17:20:30 10° S 17:25:40 71° ESE 17:30:48 10° NNE
SL-8 R/B 3.8 17:26:32 10° NW 17:31:16 63° NE 17:32:43 41° E
Cosmos 1943 Rocket 3.5 17:29:19 10° NW 17:34:27 39° WSW 17:39:35 10° S
MOS 1 4.2 17:30:03 13° SSE 17:35:13 89° WSW 17:40:54 10° NNW
Cosmos 1610 Rocket 4.4 17:29:21 10° N 17:35:27 61° E 17:38:57 26° SSE
ISS -2.4 17:36:57 10° WNW 17:40:00 32° SW 17:40:34 30° SSW
H-2A R/B 2.5 17:35:55 10° S 17:41:08 62° W 17:46:14 10° NNW
CZ-2C R/B 3.2 17:39:03 12° S 17:43:33 64° W 17:48:19 10° NNW
Cosmos 1340 Rocket 2.8 17:39:48 11° S 17:43:40 81° W 17:47:42 10° N
Cosmos 2369 Rocket 3.2 17:38:28 10° NW 17:43:49 45° WSW 17:49:08 10° S
Hubble Space Telescope 1.4 17:41:36 10° WSW 17:45:02 42° S 17:45:02 42° S
GPS 2-04 Rocket1 3.8 17:42:02 10° SW 17:44:43 33° SSW 17:44:43 33° SSW
MOS 1 Rocket 3.5 17:42:23 10° NNE 17:47:50 74° E 17:52:21 15° S
CZ-2C R/B 4.2 17:46:25 10° N 17:50:59 60° WNW 17:55:29 10° SSW
SL-08 RB Rocket 3.8 17:53:03 43° S 17:54:29 74° WSW 17:59:04 10° NNW
Cosmos 1703 3.7 17:50:40 10° NNW 17:54:34 60° W 17:55:19 49° SW
Cosmos 1328 4.1 17:51:05 10° NNW 17:55:02 63° W 17:55:41 53° SW
USA 234 3.1 17:51:43 10° NE 17:58:17 89° ESE 18:04:50 10° SW
OAO 1 4.4 17:53:17 10° WSW 17:58:49 85° SSE 17:59:41 64° E
Resurs 1-3 3.7 17:59:53 61° NNE 17:59:53 61° NNE 18:03:40 10° N
ATLAS 2AS CENTAUR R/B 2.7 17:55:11 10° NNW 18:02:30 64° ENE 18:03:55 53° ESE
BREEZE-M DEB (TANK) 4.1 18:01:39 10° WSW 18:08:45 54° NW 18:09:19 48° N
ATLAS 5 CENTAUR R/B 3.5 18:05:58 10° SW 18:11:48 43° SSE 18:14:21 39° SE
Cosmos 2341 Rocket 3.9 18:08:26 10° N 18:14:49 68° E 18:15:00 68° E
MetOp-A 4.3 18:14:17 57° SSW 18:15:14 70° WSW 18:20:35 10° NNW
Cosmos 1656 Rocket 4.3 18:12:33 10° NNW 18:17:57 50° WSW 18:19:21 40° SSW
COSMOS 2455 3.4 18:17:11 10° NNW 18:22:02 44° NE 18:22:02 44° NE
CZ-2C R/B 3.3 18:18:48 10° N 18:23:48 50° WNW 18:27:35 17° SW
Resurs 01 Rocket 3.0 18:30:56 35° NNW 18:30:56 35° NNW 18:33:30 10° NNW
Cosmos 2181 Rocket 4.0 18:35:49 74° WSW 18:36:07 76° W 18:42:20 10° N
SL-8 Rocket 4.3 18:39:28 10° N 18:44:33 60° N 18:44:33 60° N
